Location: Boullarre
(49.1305°N, 3.0047°E)
Time: 09:51:04
(UTC+00:00)

Tiangong - Pass Details

Date: 12 June 2023
Orbit: 372 x 384 km, 41.5° (Epoch: 30 September)

Event Time Altitude Azimuth Distance (km) Brightness Sun altitude
Exits shadow 03:02:40 - 234° (SW) 1,576 0.3 -5.7°
Reaches altitude 10° 03:03:57 10° 213° (SSW) 1,383 0.0 -5.6°
Maximum altitude 03:04:32 10° 202° (SSW) 1,361 0.1 -5.5°
Drops below altitude 10° 03:05:07 10° 191° (S) 1,385 0.2 -5.5°
Sets 03:08:43 0° 148° (SSE) 2,244 1.6 -5.0°
